Time,TemperatureF,DewpointF,PressureIn,WindDirection,WindDirectionDegrees,WindSpeedMPH,WindSpeedGustMPH,Humidity,HourlyPrecipIn,Conditions,Clouds,dailyrainin,SoftwareType,DateUTC
2013-09-30 00:02:00,62.4,56.8,29.95,West,273,0.0,0.0,82,0.00,,---,0.00,VWS V14.01,2013-09-30 07:02:00,
2013-09-30 00:07:00,62.3,56.7,29.95,West,271,0.0,0.0,82,0.00,,---,0.00,VWS V14.01,2013-09-30 07:07:00,
2013-09-30 00:12:00,62.3,56.7,29.95,West,273,0.0,0.0,82,0.00,,---,0.00,VWS V14.01,2013-09-30 07:12:00,
2013-09-30 00:17:00,62.4,56.8,29.95,West,271,0.0,0.0,82,0.00,,---,0.00,VWS V14.01,2013-09-30 07:17:00,
2013-09-30 00:22:00,62.3,56.7,29.95,West,266,0.0,0.0,82,0.00,,---,0.00,VWS V14.01,2013-09-30 07:22:00,
2013-09-30 00:27:00,62.3,56.7,29.95,West,265,0.0,0.0,82,0.00,,---,0.00,VWS V14.01,2013-09-30 07:27:00,
2013-09-30 00:33:00,62.4,56.8,29.95,West,265,0.0,0.0,82,0.00,,---,0.00,VWS V14.01,2013-09-30 07:33:00,
2013-09-30 00:38:00,62.4,56.8,29.95,WNW,297,0.0,0.0,82,0.00,,---,0.00,VWS V14.01,2013-09-30 07:38:00,
2013-09-30 00:43:00,62.5,56.9,29.95,North,11,0.0,0.0,82,0.00,,---,0.00,VWS V14.01,2013-09-30 07:43:00,
2013-09-30 00:48:00,62.5,56.9,29.95,ENE,58,0.0,0.0,82,0.00,,---,0.00,VWS V14.01,2013-09-30 07:48:00,
2013-09-30 00:53:00,62.5,56.9,29.94,ENE,57,0.0,0.0,82,0.00,,---,0.00,VWS V14.01,2013-09-30 07:53:00,
2013-09-30 00:58:00,62.5,56.9,29.94,ENE,58,0.0,0.0,82,0.00,,---,0.00,VWS V14.01,2013-09-30 07:58:00,
2013-09-30 01:03:00,62.4,56.8,29.94,ENE,62,0.0,0.0,82,0.00,,---,0.00,VWS V14.01,2013-09-30 08:03:00,
2013-09-30 01:08:00,62.4,56.8,29.94,ENE,62,0.0,0.0,82,0.00,,---,0.00,VWS V14.01,2013-09-30 08:08:00,
2013-09-30 01:13:00,62.4,56.8,29.94,ENE,63,0.0,0.0,82,0.00,,---,0.00,VWS V14.01,2013-09-30 08:13:00,
2013-09-30 01:18:00,62.4,57.2,29.94,ENE,63,0.0,0.0,83,0.00,,---,0.00,VWS V14.01,2013-09-30 08:18:00,
2013-09-30 01:23:00,62.3,56.7,29.94,ENE,64,0.0,0.0,82,0.00,,---,0.00,VWS V14.01,2013-09-30 08:23:00,
2013-09-30 01:28:00,62.3,57.1,29.94,ENE,62,0.0,0.0,83,0.00,,---,0.00,VWS V14.01,2013-09-30 08:28:00,
2013-09-30 01:33:00,62.5,56.9,29.94,ENE,63,0.0,0.0,82,0.00,,---,0.00,VWS V14.01,2013-09-30 08:33:00,
2013-09-30 01:38:00,62.5,56.9,29.94,ENE,62,0.0,0.0,82,0.00,,---,0.00,VWS V14.01,2013-09-30 08:38:00,
2013-09-30 01:43:00,62.5,56.9,29.94,ENE,61,0.0,0.0,82,0.00,,---,0.00,VWS V14.01,2013-09-30 08:43:00,
2013-09-30 01:48:00,62.5,56.9,29.94,ENE,63,0.0,0.0,82,0.00,,---,0.00,VWS V14.01,2013-09-30 08:48:00,
2013-09-30 01:53:00,62.5,56.9,29.94,ENE,63,0.0,0.0,82,0.00,,---,0.00,VWS V14.01,2013-09-30 08:53:00,
2013-09-30 01:58:00,62.5,56.9,29.94,ENE,63,0.0,0.0,82,0.00,,---,0.00,VWS V14.01,2013-09-30 08:58:00,
2013-09-30 02:03:00,62.4,56.8,29.94,ENE,64,0.0,0.0,82,0.00,,---,0.00,VWS V14.01,2013-09-30 09:03:00,
2013-09-30 02:08:00,62.3,56.7,29.94,ENE,64,0.0,0.0,82,0.00,,---,0.00,VWS V14.01,2013-09-30 09:08:00,
2013-09-30 02:13:00,62.2,56.6,29.94,ENE,63,0.0,0.0,82,0.00,,---,0.00,VWS V14.01,2013-09-30 09:13:00,
2013-09-30 02:18:00,62.3,56.7,29.94,ENE,63,0.0,0.0,82,0.00,,---,0.00,VWS V14.01,2013-09-30 09:18:00,
2013-09-30 02:24:00,62.3,56.7,29.94,ENE,63,0.0,0.0,82,0.00,,---,0.00,VWS V14.01,2013-09-30 09:24:00,
2013-09-30 02:29:00,62.2,56.6,29.94,ENE,62,0.0,0.0,82,0.00,,---,0.00,VWS V14.01,2013-09-30 09:29:00,
2013-09-30 02:34:00,62.2,56.6,29.95,ENE,63,0.0,0.0,82,0.00,,---,0.00,VWS V14.01,2013-09-30 09:34:00,
2013-09-30 02:39:00,62.3,56.7,29.95,ENE,64,0.0,0.0,82,0.00,,---,0.00,VWS V14.01,2013-09-30 09:39:00,
2013-09-30 02:44:00,62.3,56.7,29.94,ENE,64,0.0,0.0,82,0.00,,---,0.00,VWS V14.01,2013-09-30 09:44:00,
2013-09-30 02:49:00,62.4,56.8,29.94,ENE,65,0.0,0.0,82,0.00,,---,0.00,VWS V14.01,2013-09-30 09:49:00,
2013-09-30 02:54:00,62.4,56.8,29.94,ENE,63,0.0,0.0,82,0.00,,---,0.00,VWS V14.01,2013-09-30 09:54:00,
2013-09-30 02:59:00,62.5,56.9,29.93,ENE,63,0.0,0.0,82,0.00,,---,0.00,VWS V14.01,2013-09-30 09:59:00,
2013-09-30 03:04:00,62.5,56.9,29.93,ENE,63,0.0,0.0,82,0.00,,---,0.00,VWS V14.01,2013-09-30 10:04:00,
2013-09-30 03:09:00,62.5,56.9,29.93,ENE,71,0.0,0.0,82,0.00,,---,0.00,VWS V14.01,2013-09-30 10:09:00,
2013-09-30 03:14:00,62.5,56.9,29.93,East,97,0.0,0.0,82,0.00,,---,0.00,VWS V14.01,2013-09-30 10:14:00,
2013-09-30 03:19:00,62.5,56.9,29.93,East,98,0.0,0.0,82,0.00,,---,0.00,VWS V14.01,2013-09-30 10:19:00,
2013-09-30 03:24:00,62.5,56.9,29.93,East,98,0.0,0.0,82,0.00,,---,0.00,VWS V14.01,2013-09-30 10:24:00,
2013-09-30 03:29:00,62.5,56.9,29.93,ENE,71,0.0,0.0,82,0.00,,---,0.00,VWS V14.01,2013-09-30 10:29:00,
2013-09-30 03:34:00,62.6,57.0,29.93,ENE,68,0.0,0.0,82,0.00,,---,0.00,VWS V14.01,2013-09-30 10:34:00,
2013-09-30 03:39:00,62.6,57.0,29.93,ENE,71,0.0,0.0,82,0.00,,---,0.00,VWS V14.01,2013-09-30 10:39:00,
2013-09-30 03:44:00,62.7,57.1,29.93,ENE,69,0.0,0.0,82,0.00,,---,0.00,VWS V14.01,2013-09-30 10:44:00,
2013-09-30 03:49:00,62.7,57.1,29.93,ENE,69,0.0,0.0,82,0.00,,---,0.00,VWS V14.01,2013-09-30 10:49:00,
2013-09-30 03:54:00,62.7,57.1,29.93,ENE,68,0.0,0.0,82,0.00,,---,0.00,VWS V14.01,2013-09-30 10:54:00,
2013-09-30 03:59:00,62.7,57.1,29.93,ENE,69,0.0,0.0,82,0.00,,---,0.00,VWS V14.01,2013-09-30 10:59:00,
2013-09-30 04:04:00,62.7,57.1,29.93,ENE,69,0.0,0.0,82,0.00,,---,0.00,VWS V14.01,2013-09-30 11:04:00,
2013-09-30 04:09:00,62.6,57.0,29.93,ENE,69,0.0,0.0,82,0.00,,---,0.00,VWS V14.01,2013-09-30 11:09:00,
2013-09-30 04:14:00,62.5,56.9,29.93,ENE,67,0.0,0.0,82,0.00,,---,0.00,VWS V14.01,2013-09-30 11:14:00,
2013-09-30 04:19:00,62.5,57.3,29.93,NNW,338,0.0,0.0,83,0.00,,---,0.00,VWS V14.01,2013-09-30 11:19:00,
2013-09-30 04:24:00,62.5,57.3,29.93,NNW,338,0.0,0.0,83,0.00,,---,0.00,VWS V14.01,2013-09-30 11:24:00,
2013-09-30 04:29:00,62.5,57.3,29.93,North,5,0.0,0.0,83,0.00,,---,0.00,VWS V14.01,2013-09-30 11:29:00,
2013-09-30 04:34:00,62.5,57.3,29.92,North,5,0.0,0.0,83,0.00,,---,0.00,VWS V14.01,2013-09-30 11:34:00,
2013-09-30 04:39:00,62.4,57.2,29.92,NW,315,0.0,0.0,83,0.00,,---,0.00,VWS V14.01,2013-09-30 11:39:00,
2013-09-30 04:45:00,62.3,57.1,29.92,NW,325,0.0,0.0,83,0.00,,---,0.00,VWS V14.01,2013-09-30 11:45:00,
2013-09-30 04:50:00,62.3,57.1,29.92,NW,324,0.0,0.0,83,0.00,,---,0.00,VWS V14.01,2013-09-30 11:50:00,
2013-09-30 04:55:00,62.3,57.1,29.92,NW,324,0.0,0.0,83,0.00,,---,0.00,VWS V14.01,2013-09-30 11:55:00,
2013-09-30 05:00:00,62.3,57.1,29.92,SW,215,0.0,0.0,83,0.00,,---,0.00,VWS V14.01,2013-09-30 12:00:00,
2013-09-30 05:05:00,62.4,57.2,29.92,SSW,193,0.0,0.0,83,0.00,,---,0.00,VWS V14.01,2013-09-30 12:05:00,
2013-09-30 05:10:00,62.4,57.2,29.92,South,185,0.0,0.0,83,0.00,,---,0.00,VWS V14.01,2013-09-30 12:10:00,
2013-09-30 05:15:00,62.4,57.2,29.92,SSW,193,0.0,0.0,83,0.00,,---,0.00,VWS V14.01,2013-09-30 12:15:00,
2013-09-30 05:20:00,62.4,57.2,29.92,SW,232,0.0,0.0,83,0.00,,---,0.00,VWS V14.01,2013-09-30 12:20:00,
2013-09-30 05:25:00,62.4,57.2,29.92,WSW,248,0.0,0.0,83,0.00,,---,0.00,VWS V14.01,2013-09-30 12:25:00,
2013-09-30 05:30:00,62.4,57.2,29.92,West,280,0.0,0.0,83,0.00,,---,0.00,VWS V14.01,2013-09-30 12:30:00,
2013-09-30 05:35:00,62.4,57.2,29.92,West,280,0.0,0.0,83,0.00,,---,0.00,VWS V14.01,2013-09-30 12:35:00,
2013-09-30 05:40:00,62.2,57.0,29.92,West,278,0.0,0.0,83,0.00,,---,0.00,VWS V14.01,2013-09-30 12:40:00,
2013-09-30 05:45:00,62.1,56.9,29.92,West,279,0.0,0.0,83,0.00,,---,0.00,VWS V14.01,2013-09-30 12:45:00,
2013-09-30 05:50:00,61.9,56.7,29.92,West,279,0.0,0.0,83,0.00,,---,0.00,VWS V14.01,2013-09-30 12:50:00,
2013-09-30 05:55:00,61.7,56.5,29.92,West,279,0.0,0.0,83,0.00,,---,0.00,VWS V14.01,2013-09-30 12:55:00,
2013-09-30 06:00:00,61.6,56.7,29.92,West,281,0.0,0.0,84,0.00,,---,0.00,VWS V14.01,2013-09-30 13:00:00,
2013-09-30 06:05:00,61.4,56.5,29.92,West,279,0.0,0.0,84,0.00,,---,0.00,VWS V14.01,2013-09-30 13:05:00,
2013-09-30 06:10:00,61.3,56.4,29.92,West,279,0.0,0.0,84,0.00,,---,0.00,VWS V14.01,2013-09-30 13:10:00,
2013-09-30 06:15:00,61.2,56.7,29.92,WSW,250,0.0,0.0,85,0.00,,---,0.00,VWS V14.01,2013-09-30 13:15:00,
2013-09-30 06:20:00,61.2,56.7,29.92,WSW,250,0.0,0.0,85,0.00,,---,0.00,VWS V14.01,2013-09-30 13:20:00,
2013-09-30 06:25:00,61.1,56.6,29.92,WSW,249,0.0,0.0,85,0.00,,---,0.00,VWS V14.01,2013-09-30 13:25:00,
2013-09-30 06:30:00,61.1,56.6,29.92,SSW,211,0.0,0.0,85,0.00,,---,0.00,VWS V14.01,2013-09-30 13:30:00,
2013-09-30 06:35:00,61.1,56.6,29.92,SSW,212,0.0,0.0,85,0.00,,---,0.00,VWS V14.01,2013-09-30 13:35:00,
2013-09-30 06:40:00,61.2,56.7,29.92,SSW,211,0.0,0.0,85,0.00,,---,0.00,VWS V14.01,2013-09-30 13:40:00,
2013-09-30 06:45:00,61.1,56.6,29.92,SSW,211,0.0,0.0,85,0.00,,---,0.00,VWS V14.01,2013-09-30 13:45:00,
2013-09-30 06:50:00,61.2,56.7,29.92,SSW,210,0.0,0.0,85,0.00,,---,0.00,VWS V14.01,2013-09-30 13:50:00,
2013-09-30 06:55:00,61.2,56.7,29.92,SSW,211,0.0,0.0,85,0.00,,---,0.00,VWS V14.01,2013-09-30 13:55:00,
2013-09-30 07:00:00,61.3,56.8,29.92,SSW,211,0.0,0.0,85,0.00,,---,0.00,VWS V14.01,2013-09-30 14:00:00,
2013-09-30 07:05:00,61.5,57.0,29.92,SSW,212,0.0,0.0,85,0.00,,---,0.00,VWS V14.01,2013-09-30 14:05:00,
2013-09-30 07:10:00,62.0,57.1,29.93,SSW,213,0.0,0.0,84,0.00,,---,0.00,VWS V14.01,2013-09-30 14:10:00,
2013-09-30 07:16:00,62.1,57.2,29.93,SSW,211,0.0,0.0,84,0.00,,---,0.00,VWS V14.01,2013-09-30 14:16:00,
2013-09-30 07:21:00,62.1,57.2,29.93,SSW,212,0.0,0.0,84,0.00,,---,0.00,VWS V14.01,2013-09-30 14:21:00,
2013-09-30 07:26:00,62.2,57.3,29.93,SSW,211,0.0,0.0,84,0.00,,---,0.00,VWS V14.01,2013-09-30 14:26:00,
2013-09-30 07:31:00,62.3,57.4,29.93,SSW,211,0.0,0.0,84,0.00,,---,0.00,VWS V14.01,2013-09-30 14:31:00,
2013-09-30 07:36:00,62.5,57.6,29.93,SSW,211,0.0,0.0,84,0.00,,---,0.00,VWS V14.01,2013-09-30 14:36:00,
2013-09-30 07:41:00,62.5,57.3,29.93,SSW,211,0.0,0.0,83,0.00,,---,0.00,VWS V14.01,2013-09-30 14:41:00,
2013-09-30 07:46:00,62.6,57.4,29.93,SSW,212,0.0,0.0,83,0.00,,---,0.00,VWS V14.01,2013-09-30 14:46:00,
2013-09-30 07:51:00,62.6,57.4,29.93,SSW,211,0.0,0.0,83,0.00,,---,0.00,VWS V14.01,2013-09-30 14:51:00,
2013-09-30 07:56:00,62.7,57.5,29.93,SSW,211,0.0,0.0,83,0.00,,---,0.00,VWS V14.01,2013-09-30 14:56:00,
2013-09-30 08:01:00,62.8,57.6,29.94,SSW,213,0.0,0.0,83,0.00,,---,0.00,VWS V14.01,2013-09-30 15:01:00,
2013-09-30 08:06:00,62.9,57.7,29.94,SSW,211,0.0,0.0,83,0.00,,---,0.00,VWS V14.01,2013-09-30 15:06:00,
2013-09-30 08:11:00,63.0,57.8,29.94,SSW,212,0.0,0.0,83,0.00,,---,0.00,VWS V14.01,2013-09-30 15:11:00,
2013-09-30 08:16:00,63.0,58.1,29.94,SE,144,0.0,0.0,84,0.00,,---,0.00,VWS V14.01,2013-09-30 15:16:00,
2013-09-30 08:21:00,62.9,58.3,29.94,SE,143,0.0,0.0,85,0.00,,---,0.00,VWS V14.01,2013-09-30 15:21:00,
2013-09-30 08:26:00,62.8,58.6,29.94,SSE,147,0.0,0.0,86,0.00,,---,0.00,VWS V14.01,2013-09-30 15:26:00,
2013-09-30 08:31:00,62.7,58.5,29.94,SE,141,0.0,0.0,86,0.00,,---,0.00,VWS V14.01,2013-09-30 15:31:00,
2013-09-30 08:36:00,62.5,58.6,29.94,SE,141,0.0,0.0,87,0.00,,---,0.00,VWS V14.01,2013-09-30 15:36:00,
2013-09-30 08:41:00,62.5,58.6,29.94,SE,140,0.0,0.0,87,0.00,,---,0.00,VWS V14.01,2013-09-30 15:41:00,
2013-09-30 08:46:00,62.5,58.9,29.94,SE,139,0.0,0.0,88,0.00,,---,0.00,VWS V14.01,2013-09-30 15:46:00,
2013-09-30 08:51:00,62.5,58.9,29.94,SE,140,0.0,0.0,88,0.00,,---,0.00,VWS V14.01,2013-09-30 15:51:00,
2013-09-30 08:56:00,62.6,59.0,29.94,East,92,0.0,0.0,88,0.00,,---,0.00,VWS V14.01,2013-09-30 15:56:00,
2013-09-30 09:01:00,62.7,58.8,29.94,NNE,23,0.0,0.0,87,0.00,,---,0.00,VWS V14.01,2013-09-30 16:01:00,
2013-09-30 09:06:00,62.8,58.9,29.94,NNE,22,0.0,0.0,87,0.00,,---,0.00,VWS V14.01,2013-09-30 16:06:00,
2013-09-30 09:11:00,63.0,58.8,29.94,NNE,19,0.0,0.0,86,0.00,,---,0.00,VWS V14.01,2013-09-30 16:11:00,
2013-09-30 09:17:00,63.1,58.5,29.94,SSE,148,1.0,0.0,85,0.00,,---,0.00,VWS V14.01,2013-09-30 16:17:00,
2013-09-30 09:22:00,63.2,58.6,29.94,SSW,203,0.0,0.0,85,0.00,,---,0.00,VWS V14.01,2013-09-30 16:22:00,
2013-09-30 09:27:00,63.4,59.2,29.95,East,85,0.0,0.0,86,0.00,,---,0.00,VWS V14.01,2013-09-30 16:27:00,
2013-09-30 09:32:00,63.7,59.1,29.95,ENE,69,0.0,0.0,85,0.00,,---,0.00,VWS V14.01,2013-09-30 16:32:00,
2013-09-30 09:37:00,64.0,59.4,29.95,ENE,67,0.0,0.0,85,0.00,,---,0.00,VWS V14.01,2013-09-30 16:37:00,
2013-09-30 09:42:00,64.2,58.9,29.95,ENE,68,0.0,0.0,83,0.00,,---,0.00,VWS V14.01,2013-09-30 16:42:00,
2013-09-30 09:47:00,64.6,59.3,29.95,ENE,67,0.0,0.0,83,0.00,,---,0.00,VWS V14.01,2013-09-30 16:47:00,
2013-09-30 09:52:00,64.9,58.9,29.95,NNE,20,1.0,0.0,81,0.00,,---,0.00,VWS V14.01,2013-09-30 16:52:00,
2013-09-30 09:57:00,65.3,59.0,29.95,ESE,109,0.0,0.0,80,0.00,,---,0.00,VWS V14.01,2013-09-30 16:57:00,
2013-09-30 10:02:00,65.7,59.4,29.95,SE,136,0.0,0.0,80,0.00,,---,0.00,VWS V14.01,2013-09-30 17:02:00,
2013-09-30 10:07:00,66.0,59.3,29.95,WNW,293,1.0,0.0,79,0.00,,---,0.00,VWS V14.01,2013-09-30 17:07:00,
2013-09-30 10:12:00,66.3,59.6,29.95,SE,143,1.0,0.0,79,0.00,,---,0.00,VWS V14.01,2013-09-30 17:12:00,
2013-09-30 10:17:00,66.7,59.6,29.95,South,171,0.0,0.0,78,0.00,,---,0.00,VWS V14.01,2013-09-30 17:17:00,
2013-09-30 10:22:00,66.9,59.5,29.95,NNW,338,0.0,0.0,77,0.00,,---,0.00,VWS V14.01,2013-09-30 17:22:00,
2013-09-30 10:27:00,67.1,59.3,29.95,NNE,14,0.0,0.0,76,0.00,,---,0.00,VWS V14.01,2013-09-30 17:27:00,
2013-09-30 10:32:00,67.4,59.6,29.95,South,173,1.0,0.0,76,0.00,,---,0.00,VWS V14.01,2013-09-30 17:32:00,
2013-09-30 10:37:00,67.7,59.5,29.95,West,275,1.0,0.0,75,0.00,,---,0.00,VWS V14.01,2013-09-30 17:37:00,
2013-09-30 10:42:00,68.1,59.5,29.95,NNW,344,2.0,0.0,74,0.00,,---,0.00,VWS V14.01,2013-09-30 17:42:00,
2013-09-30 10:47:00,68.4,59.4,29.95,NNE,19,1.0,0.0,73,0.00,,---,0.00,VWS V14.01,2013-09-30 17:47:00,
2013-09-30 10:52:00,68.5,59.5,29.95,SW,227,1.0,0.0,73,0.00,,---,0.00,VWS V14.01,2013-09-30 17:52:00,
2013-09-30 10:57:00,68.6,59.2,29.95,NNW,343,0.0,0.0,72,0.00,,---,0.00,VWS V14.01,2013-09-30 17:57:00,
2013-09-30 11:02:00,68.8,59.0,29.95,NW,308,0.0,0.0,71,0.00,,---,0.00,VWS V14.01,2013-09-30 18:02:00,
2013-09-30 11:07:00,68.9,58.7,29.95,SE,142,0.0,0.0,70,0.00,,---,0.00,VWS V14.01,2013-09-30 18:07:00,
2013-09-30 11:12:00,69.1,59.7,29.94,NNE,30,1.0,0.0,72,0.00,,---,0.00,VWS V14.01,2013-09-30 18:12:00,
2013-09-30 11:17:00,69.3,59.1,29.94,NNE,15,0.0,0.0,70,0.00,,---,0.00,VWS V14.01,2013-09-30 18:17:00,
2013-09-30 11:22:00,69.7,59.5,29.95,North,350,2.0,0.0,70,0.00,,---,0.00,VWS V14.01,2013-09-30 18:22:00,
2013-09-30 11:27:00,70.3,59.2,29.94,North,9,0.0,0.0,68,0.00,,---,0.00,VWS V14.01,2013-09-30 18:27:00,
2013-09-30 11:33:00,70.8,59.3,29.94,NNW,344,2.0,0.0,67,0.00,,---,0.00,VWS V14.01,2013-09-30 18:33:00,
2013-09-30 11:38:00,71.4,59.9,29.94,North,355,2.0,0.0,67,0.00,,---,0.00,VWS V14.01,2013-09-30 18:38:00,
2013-09-30 11:43:00,72.1,59.7,29.94,WSW,246,4.0,0.0,65,0.00,,---,0.00,VWS V14.01,2013-09-30 18:43:00,
2013-09-30 11:48:00,72.4,58.7,29.94,West,267,1.0,0.0,62,0.00,,---,0.00,VWS V14.01,2013-09-30 18:48:00,
2013-09-30 11:53:00,72.6,59.3,29.94,NNW,333,2.0,0.0,63,0.00,,---,0.00,VWS V14.01,2013-09-30 18:53:00,
2013-09-30 11:58:00,73.0,59.7,29.94,West,279,2.0,0.0,63,0.00,,---,0.00,VWS V14.01,2013-09-30 18:58:00,
2013-09-30 12:03:00,73.4,58.7,29.93,WNW,295,1.0,0.0,60,0.00,,---,0.00,VWS V14.01,2013-09-30 19:03:00,
2013-09-30 12:08:00,73.8,58.6,29.93,NNW,346,1.0,0.0,59,0.00,,---,0.00,VWS V14.01,2013-09-30 19:08:00,
2013-09-30 12:13:00,74.2,59.4,29.93,NNW,327,1.0,0.0,60,0.00,,---,0.00,VWS V14.01,2013-09-30 19:13:00,
2013-09-30 12:18:00,74.5,59.2,29.93,North,350,2.0,0.0,59,0.00,,---,0.00,VWS V14.01,2013-09-30 19:18:00,
2013-09-30 12:23:00,74.5,59.2,29.93,WSW,248,3.0,0.0,59,0.00,,---,0.00,VWS V14.01,2013-09-30 19:23:00,
2013-09-30 12:28:00,74.4,58.7,29.93,West,280,2.0,0.0,58,0.00,,---,0.00,VWS V14.01,2013-09-30 19:28:00,
2013-09-30 12:33:00,74.3,59.1,29.93,NNE,23,0.0,0.0,59,0.00,,---,0.00,VWS V14.01,2013-09-30 19:33:00,
2013-09-30 12:38:00,74.5,58.8,29.93,NW,305,2.0,0.0,58,0.00,,---,0.00,VWS V14.01,2013-09-30 19:38:00,
2013-09-30 12:43:00,74.5,57.8,29.92,NW,307,2.0,0.0,56,0.00,,---,0.00,VWS V14.01,2013-09-30 19:43:00,
2013-09-30 12:48:00,74.6,57.4,29.92,North,5,0.0,0.0,55,0.00,,---,0.00,VWS V14.01,2013-09-30 19:48:00,
2013-09-30 12:53:00,74.9,57.2,29.92,West,271,1.0,0.0,54,0.00,,---,0.00,VWS V14.01,2013-09-30 19:53:00,
2013-09-30 12:58:00,75.4,56.6,29.92,North,360,3.0,0.0,52,0.00,,---,0.00,VWS V14.01,2013-09-30 19:58:00,
2013-09-30 13:03:00,76.0,57.1,29.92,SW,235,4.0,0.0,52,0.00,,---,0.00,VWS V14.01,2013-09-30 20:03:00,
2013-09-30 13:08:00,76.2,56.2,29.91,North,349,0.0,0.0,50,0.00,,---,0.00,VWS V14.01,2013-09-30 20:08:00,
2013-09-30 13:13:00,76.6,57.1,29.91,NNE,18,2.0,0.0,51,0.00,,---,0.00,VWS V14.01,2013-09-30 20:13:00,
2013-09-30 13:18:00,76.9,57.4,29.91,West,271,2.0,0.0,51,0.00,,---,0.00,VWS V14.01,2013-09-30 20:18:00,
2013-09-30 13:23:00,77.1,57.6,29.91,West,278,1.0,0.0,51,0.00,,---,0.00,VWS V14.01,2013-09-30 20:23:00,
2013-09-30 13:29:00,77.3,57.2,29.90,WNW,295,0.0,0.0,50,0.00,,---,0.00,VWS V14.01,2013-09-30 20:29:00,
2013-09-30 13:34:00,78.0,57.9,29.90,NNW,333,4.0,0.0,50,0.00,,---,0.00,VWS V14.01,2013-09-30 20:34:00,
2013-09-30 13:39:00,78.4,58.8,29.90,South,177,2.0,0.0,51,0.00,,---,0.00,VWS V14.01,2013-09-30 20:39:00,
2013-09-30 13:44:00,78.5,57.8,29.90,West,265,3.0,0.0,49,0.00,,---,0.00,VWS V14.01,2013-09-30 20:44:00,
2013-09-30 13:49:00,78.9,58.1,29.90,NW,306,1.0,0.0,49,0.00,,---,0.00,VWS V14.01,2013-09-30 20:49:00,
2013-09-30 13:54:00,79.5,58.1,29.89,SSW,207,1.0,0.0,48,0.00,,---,0.00,VWS V14.01,2013-09-30 20:54:00,
2013-09-30 13:59:00,79.7,58.3,29.89,SSE,157,1.0,0.0,48,0.00,,---,0.00,VWS V14.01,2013-09-30 20:59:00,
2013-09-30 14:04:00,79.4,58.6,29.89,NW,309,1.0,0.0,49,0.00,,---,0.00,VWS V14.01,2013-09-30 21:04:00,
2013-09-30 14:09:00,79.4,58.6,29.89,South,180,0.0,0.0,49,0.00,,---,0.00,VWS V14.01,2013-09-30 21:09:00,
2013-09-30 14:14:00,79.4,59.2,29.89,North,355,0.0,0.0,50,0.00,,---,0.00,VWS V14.01,2013-09-30 21:14:00,
2013-09-30 14:19:00,79.2,58.4,29.89,WNW,300,0.0,0.0,49,0.00,,---,0.00,VWS V14.01,2013-09-30 21:19:00,
2013-09-30 14:24:00,79.3,59.1,29.88,SSW,202,0.0,0.0,50,0.00,,---,0.00,VWS V14.01,2013-09-30 21:24:00,
2013-09-30 14:29:00,79.5,58.7,29.88,SE,144,0.0,0.0,49,0.00,,---,0.00,VWS V14.01,2013-09-30 21:29:00,
2013-09-30 14:34:00,79.6,59.3,29.88,NNW,340,1.0,0.0,50,0.00,,---,0.00,VWS V14.01,2013-09-30 21:34:00,
2013-09-30 14:39:00,80.0,58.6,29.88,SE,144,2.0,0.0,48,0.00,,---,0.00,VWS V14.01,2013-09-30 21:39:00,
2013-09-30 14:44:00,79.8,58.4,29.88,WSW,247,2.0,0.0,48,0.00,,---,0.00,VWS V14.01,2013-09-30 21:44:00,
2013-09-30 14:49:00,79.3,59.1,29.88,NNW,334,1.0,0.0,50,0.00,,---,0.00,VWS V14.01,2013-09-30 21:49:00,
2013-09-30 14:54:00,79.0,58.8,29.88,NE,41,1.0,0.0,50,0.00,,---,0.00,VWS V14.01,2013-09-30 21:54:00,
2013-09-30 14:59:00,78.8,58.0,29.88,NW,314,1.0,0.0,49,0.00,,---,0.00,VWS V14.01,2013-09-30 21:59:00,
2013-09-30 15:04:00,78.5,58.9,29.88,NNW,347,0.0,0.0,51,0.00,,---,0.00,VWS V14.01,2013-09-30 22:04:00,
2013-09-30 15:09:00,78.9,59.2,29.88,WNW,285,2.0,0.0,51,0.00,,---,0.00,VWS V14.01,2013-09-30 22:09:00,
2013-09-30 15:14:00,79.3,58.5,29.87,NNE,13,0.0,0.0,49,0.00,,---,0.00,VWS V14.01,2013-09-30 22:14:00,
2013-09-30 15:19:00,78.9,58.7,29.87,NW,306,0.0,0.0,50,0.00,,---,0.00,VWS V14.01,2013-09-30 22:19:00,
2013-09-30 15:24:00,78.6,58.4,29.87,North,11,0.0,0.0,50,0.00,,---,0.00,VWS V14.01,2013-09-30 22:24:00,
2013-09-30 15:29:00,78.3,58.7,29.87,NE,43,1.0,0.0,51,0.00,,---,0.00,VWS V14.01,2013-09-30 22:29:00,
2013-09-30 15:34:00,77.9,58.3,29.87,NW,315,0.0,0.0,51,0.00,,---,0.00,VWS V14.01,2013-09-30 22:34:00,
2013-09-30 15:39:00,77.5,59.0,29.87,West,271,0.0,0.0,53,0.00,,---,0.00,VWS V14.01,2013-09-30 22:39:00,
2013-09-30 15:44:00,77.3,58.8,29.87,NNW,333,1.0,0.0,53,0.00,,---,0.00,VWS V14.01,2013-09-30 22:44:00,
2013-09-30 15:49:00,77.2,59.3,29.86,NNE,13,0.0,0.0,54,0.00,,---,0.00,VWS V14.01,2013-09-30 22:49:00,
2013-09-30 15:55:00,77.1,59.2,29.86,NNW,338,0.0,0.0,54,0.00,,---,0.00,VWS V14.01,2013-09-30 22:55:00,
2013-09-30 16:00:00,76.7,58.8,29.86,ENE,78,0.0,0.0,54,0.00,,---,0.00,VWS V14.01,2013-09-30 23:00:00,
2013-09-30 16:05:00,76.6,58.7,29.86,NNE,17,0.0,0.0,54,0.00,,---,0.00,VWS V14.01,2013-09-30 23:05:00,
2013-09-30 16:10:00,76.5,59.2,29.86,SW,218,0.0,0.0,55,0.00,,---,0.00,VWS V14.01,2013-09-30 23:10:00,
2013-09-30 16:15:00,76.5,59.2,29.86,SW,215,0.0,0.0,55,0.00,,---,0.00,VWS V14.01,2013-09-30 23:15:00,
2013-09-30 16:20:00,76.4,59.1,29.86,ENE,60,0.0,0.0,55,0.00,,---,0.00,VWS V14.01,2013-09-30 23:20:00,
2013-09-30 16:25:00,76.4,58.5,29.86,NNW,348,0.0,0.0,54,0.00,,---,0.00,VWS V14.01,2013-09-30 23:25:00,
2013-09-30 16:30:00,76.4,59.1,29.85,WNW,288,0.0,0.0,55,0.00,,---,0.00,VWS V14.01,2013-09-30 23:30:00,
2013-09-30 16:35:00,76.3,59.0,29.86,South,188,0.0,0.0,55,0.00,,---,0.00,VWS V14.01,2013-09-30 23:35:00,
2013-09-30 16:40:00,76.3,59.5,29.85,ESE,113,0.0,0.0,56,0.00,,---,0.00,VWS V14.01,2013-09-30 23:40:00,
2013-09-30 16:45:00,76.4,59.1,29.85,SSE,159,0.0,0.0,55,0.00,,---,0.00,VWS V14.01,2013-09-30 23:45:00,
2013-09-30 16:50:00,76.5,59.2,29.85,NNE,32,0.0,0.0,55,0.00,,---,0.00,VWS V14.01,2013-09-30 23:50:00,
2013-09-30 16:55:00,76.5,58.6,29.85,West,276,2.0,0.0,54,0.00,,---,0.00,VWS V14.01,2013-09-30 23:55:00,
2013-09-30 17:00:00,76.4,58.5,29.85,NNW,335,0.0,0.0,54,0.00,,---,0.00,VWS V14.01,2013-10-01 00:00:00,
2013-09-30 17:05:00,76.1,59.3,29.84,NW,306,0.0,0.0,56,0.00,,---,0.00,VWS V14.01,2013-10-01 00:05:00,
2013-09-30 17:10:00,75.7,58.9,29.85,ESE,123,0.0,0.0,56,0.00,,---,0.00,VWS V14.01,2013-10-01 00:10:00,
2013-09-30 17:15:00,75.4,59.1,29.84,SE,126,0.0,0.0,57,0.00,,---,0.00,VWS V14.01,2013-10-01 00:15:00,
2013-09-30 17:20:00,75.2,58.9,29.84,East,101,0.0,0.0,57,0.00,,---,0.00,VWS V14.01,2013-10-01 00:20:00,
2013-09-30 17:25:00,75.2,59.4,29.84,SSW,196,0.0,0.0,58,0.00,,---,0.00,VWS V14.01,2013-10-01 00:25:00,
2013-09-30 17:30:00,75.1,59.3,29.84,SW,225,0.0,0.0,58,0.00,,---,0.00,VWS V14.01,2013-10-01 00:30:00,
2013-09-30 17:35:00,75.1,59.3,29.84,NNW,331,1.0,0.0,58,0.00,,---,0.00,VWS V14.01,2013-10-01 00:35:00,
2013-09-30 17:40:00,74.9,59.1,29.83,West,274,0.0,0.0,58,0.00,,---,0.00,VWS V14.01,2013-10-01 00:40:00,
2013-09-30 17:45:00,74.8,59.0,29.83,WNW,291,1.0,0.0,58,0.00,,---,0.00,VWS V14.01,2013-10-01 00:45:00,
2013-09-30 17:50:00,74.7,59.4,29.83,West,277,0.0,0.0,59,0.00,,---,0.00,VWS V14.01,2013-10-01 00:50:00,
2013-09-30 17:55:00,74.6,59.3,29.83,NW,310,0.0,0.0,59,0.00,,---,0.00,VWS V14.01,2013-10-01 00:55:00,
2013-09-30 18:00:00,74.5,59.2,29.83,WNW,286,0.0,0.0,59,0.00,,---,0.00,VWS V14.01,2013-10-01 01:00:00,
2013-09-30 18:05:00,74.3,59.1,29.83,WNW,286,0.0,0.0,59,0.00,,---,0.00,VWS V14.01,2013-10-01 01:05:00,
2013-09-30 18:10:00,74.2,59.4,29.83,West,271,0.0,0.0,60,0.00,,---,0.00,VWS V14.01,2013-10-01 01:10:00,
2013-09-30 18:15:00,74.0,59.7,29.83,West,279,0.0,0.0,61,0.00,,---,0.00,VWS V14.01,2013-10-01 01:15:00,
2013-09-30 18:21:00,73.8,59.5,29.83,West,279,0.0,0.0,61,0.00,,---,0.00,VWS V14.01,2013-10-01 01:21:00,
2013-09-30 18:26:00,73.6,59.3,29.83,WSW,249,0.0,0.0,61,0.00,,---,0.00,VWS V14.01,2013-10-01 01:26:00,
2013-09-30 18:31:00,73.4,59.2,29.83,WSW,249,0.0,0.0,61,0.00,,---,0.00,VWS V14.01,2013-10-01 01:31:00,
2013-09-30 18:36:00,73.0,59.2,29.83,WSW,250,0.0,0.0,62,0.00,,---,0.00,VWS V14.01,2013-10-01 01:36:00,
2013-09-30 18:41:00,72.7,58.9,29.83,WSW,249,0.0,0.0,62,0.00,,---,0.00,VWS V14.01,2013-10-01 01:41:00,
2013-09-30 18:46:00,72.2,59.4,29.83,WSW,249,0.0,0.0,64,0.00,,---,0.00,VWS V14.01,2013-10-01 01:46:00,
2013-09-30 18:51:00,71.8,59.0,29.82,WSW,250,0.0,0.0,64,0.00,,---,0.00,VWS V14.01,2013-10-01 01:51:00,
2013-09-30 18:56:00,71.4,58.6,29.82,WSW,251,0.0,0.0,64,0.00,,---,0.00,VWS V14.01,2013-10-01 01:56:00,
2013-09-30 19:01:00,71.0,58.7,29.82,WSW,250,0.0,0.0,65,0.00,,---,0.00,VWS V14.01,2013-10-01 02:01:00,
2013-09-30 19:06:00,70.8,58.9,29.82,WSW,250,0.0,0.0,66,0.00,,---,0.00,VWS V14.01,2013-10-01 02:06:00,
2013-09-30 19:11:00,70.5,58.6,29.82,WSW,250,0.0,0.0,66,0.00,,---,0.00,VWS V14.01,2013-10-01 02:11:00,
2013-09-30 19:16:00,70.2,58.7,29.82,WSW,248,0.0,0.0,67,0.00,,---,0.00,VWS V14.01,2013-10-01 02:16:00,
2013-09-30 19:21:00,69.8,58.4,29.83,WSW,249,0.0,0.0,67,0.00,,---,0.00,VWS V14.01,2013-10-01 02:21:00,
2013-09-30 19:26:00,69.6,58.6,29.82,WSW,249,0.0,0.0,68,0.00,,---,0.00,VWS V14.01,2013-10-01 02:26:00,
2013-09-30 19:31:00,69.5,58.5,29.83,WSW,249,0.0,0.0,68,0.00,,---,0.00,VWS V14.01,2013-10-01 02:31:00,
2013-09-30 19:36:00,69.4,58.8,29.83,WSW,254,0.0,0.0,69,0.00,,---,0.00,VWS V14.01,2013-10-01 02:36:00,
2013-09-30 19:41:00,69.3,59.1,29.83,WSW,252,0.0,0.0,70,0.00,,---,0.00,VWS V14.01,2013-10-01 02:41:00,
2013-09-30 19:46:00,69.2,59.0,29.83,WSW,254,0.0,0.0,70,0.00,,---,0.00,VWS V14.01,2013-10-01 02:46:00,
2013-09-30 19:51:00,69.1,58.9,29.83,WSW,253,0.0,0.0,70,0.00,,---,0.00,VWS V14.01,2013-10-01 02:51:00,
2013-09-30 19:56:00,68.9,58.7,29.83,WSW,254,0.0,0.0,70,0.00,,---,0.00,VWS V14.01,2013-10-01 02:56:00,
2013-09-30 20:01:00,68.6,58.8,29.82,WSW,252,0.0,0.0,71,0.00,,---,0.00,VWS V14.01,2013-10-01 03:01:00,
2013-09-30 20:06:00,68.3,58.5,29.82,WSW,253,0.0,0.0,71,0.00,,---,0.00,VWS V14.01,2013-10-01 03:06:00,
2013-09-30 20:11:00,68.0,58.7,29.82,WSW,252,0.0,0.0,72,0.00,,---,0.00,VWS V14.01,2013-10-01 03:11:00,
2013-09-30 20:16:00,67.8,58.5,29.82,WSW,253,0.0,0.0,72,0.00,,---,0.00,VWS V14.01,2013-10-01 03:16:00,
2013-09-30 20:21:00,67.6,58.7,29.83,WSW,254,0.0,0.0,73,0.00,,---,0.00,VWS V14.01,2013-10-01 03:21:00,
2013-09-30 20:26:00,67.4,58.5,29.83,WSW,254,0.0,0.0,73,0.00,,---,0.00,VWS V14.01,2013-10-01 03:26:00,
2013-09-30 20:31:00,67.2,58.6,29.83,WSW,253,0.0,0.0,74,0.00,,---,0.00,VWS V14.01,2013-10-01 03:31:00,
2013-09-30 20:36:00,66.9,58.3,29.83,WSW,253,0.0,0.0,74,0.00,,---,0.00,VWS V14.01,2013-10-01 03:36:00,
2013-09-30 20:41:00,66.7,58.5,29.83,WSW,254,0.0,0.0,75,0.00,,---,0.00,VWS V14.01,2013-10-01 03:41:00,
2013-09-30 20:47:00,66.5,58.7,29.83,WSW,253,0.0,0.0,76,0.00,,---,0.00,VWS V14.01,2013-10-01 03:47:00,
2013-09-30 20:52:00,66.4,58.6,29.84,WSW,254,0.0,0.0,76,0.00,,---,0.00,VWS V14.01,2013-10-01 03:52:00,
2013-09-30 20:57:00,66.3,58.5,29.84,WSW,253,0.0,0.0,76,0.00,,---,0.00,VWS V14.01,2013-10-01 03:57:00,
2013-09-30 21:01:00,66.2,58.4,29.84,WSW,254,0.0,0.0,76,0.00,,---,0.00,VWS V14.01,2013-10-01 04:01:00,
2013-09-30 21:02:00,66.1,58.3,29.84,WSW,253,0.0,0.0,76,0.00,,---,0.00,VWS V14.01,2013-10-01 04:02:00,
2013-09-30 21:07:00,66.0,58.2,29.84,WSW,253,0.0,0.0,76,0.00,,---,0.00,VWS V14.01,2013-10-01 04:07:00,
2013-09-30 21:12:00,65.8,58.4,29.84,WSW,252,0.0,0.0,77,0.00,,---,0.00,VWS V14.01,2013-10-01 04:12:00,
2013-09-30 21:18:00,65.6,58.2,29.84,WSW,254,0.0,0.0,77,0.00,,---,0.00,VWS V14.01,2013-10-01 04:18:00,
2013-09-30 21:23:00,65.3,58.3,29.84,WSW,253,0.0,0.0,78,0.00,,---,0.00,VWS V14.01,2013-10-01 04:23:00,
2013-09-30 21:28:00,65.1,58.1,29.84,WSW,252,0.0,0.0,78,0.00,,---,0.00,VWS V14.01,2013-10-01 04:28:00,
2013-09-30 21:33:00,64.7,57.7,29.84,WSW,253,0.0,0.0,78,0.00,,---,0.00,VWS V14.01,2013-10-01 04:33:00,
2013-09-30 21:38:00,64.5,57.8,29.84,WSW,252,0.0,0.0,79,0.00,,---,0.00,VWS V14.01,2013-10-01 04:38:00,
2013-09-30 21:43:00,64.3,57.7,29.84,WSW,254,0.0,0.0,79,0.00,,---,0.00,VWS V14.01,2013-10-01 04:43:00,
2013-09-30 21:48:00,64.1,57.5,29.84,WSW,252,0.0,0.0,79,0.00,,---,0.00,VWS V14.01,2013-10-01 04:48:00,
2013-09-30 21:53:00,63.8,57.5,29.84,WSW,254,0.0,0.0,80,0.00,,---,0.00,VWS V14.01,2013-10-01 04:53:00,
2013-09-30 21:58:00,63.6,57.3,29.84,WSW,253,0.0,0.0,80,0.00,,---,0.00,VWS V14.01,2013-10-01 04:58:00,
2013-09-30 22:03:00,63.5,57.2,29.84,WSW,252,0.0,0.0,80,0.00,,---,0.00,VWS V14.01,2013-10-01 05:03:00,
2013-09-30 22:08:00,63.4,57.5,29.84,WSW,252,0.0,0.0,81,0.00,,---,0.00,VWS V14.01,2013-10-01 05:08:00,
2013-09-30 22:13:00,63.3,57.4,29.84,WSW,252,0.0,0.0,81,0.00,,---,0.00,VWS V14.01,2013-10-01 05:13:00,
2013-09-30 22:18:00,63.3,57.4,29.84,WSW,252,0.0,0.0,81,0.00,,---,0.00,VWS V14.01,2013-10-01 05:18:00,
2013-09-30 22:23:00,63.3,57.4,29.83,WSW,253,0.0,0.0,81,0.00,,---,0.00,VWS V14.01,2013-10-01 05:23:00,
2013-09-30 22:28:00,63.3,57.4,29.83,WSW,253,0.0,0.0,81,0.00,,---,0.00,VWS V14.01,2013-10-01 05:28:00,
2013-09-30 22:34:00,63.2,57.3,29.83,WSW,253,0.0,0.0,81,0.00,,---,0.00,VWS V14.01,2013-10-01 05:34:00,
2013-09-30 22:39:00,63.1,57.2,29.83,WSW,254,0.0,0.0,81,0.00,,---,0.00,VWS V14.01,2013-10-01 05:39:00,
2013-09-30 22:44:00,62.9,57.0,29.83,WSW,253,0.0,0.0,81,0.00,,---,0.00,VWS V14.01,2013-10-01 05:44:00,
2013-09-30 22:49:00,62.8,56.9,29.83,WSW,252,0.0,0.0,81,0.00,,---,0.00,VWS V14.01,2013-10-01 05:49:00,
2013-09-30 22:54:00,62.6,57.0,29.83,WSW,254,0.0,0.0,82,0.00,,---,0.00,VWS V14.01,2013-10-01 05:54:00,
2013-09-30 22:59:00,62.6,57.0,29.83,WSW,252,0.0,0.0,82,0.00,,---,0.00,VWS V14.01,2013-10-01 05:59:00,
2013-09-30 23:04:00,62.4,56.8,29.83,WSW,255,0.0,0.0,82,0.00,,---,0.00,VWS V14.01,2013-10-01 06:04:00,
2013-09-30 23:09:00,62.3,56.7,29.83,WSW,254,0.0,0.0,82,0.00,,---,0.00,VWS V14.01,2013-10-01 06:09:00,
2013-09-30 23:14:00,62.1,56.9,29.83,WSW,252,0.0,0.0,83,0.00,,---,0.00,VWS V14.01,2013-10-01 06:14:00,
2013-09-30 23:19:00,62.2,56.6,29.83,WSW,254,0.0,0.0,82,0.00,,---,0.00,VWS V14.01,2013-10-01 06:19:00,
2013-09-30 23:24:00,62.1,56.9,29.83,WSW,252,0.0,0.0,83,0.00,,---,0.00,VWS V14.01,2013-10-01 06:24:00,
2013-09-30 23:29:00,61.8,56.6,29.83,WSW,254,0.0,0.0,83,0.00,,---,0.00,VWS V14.01,2013-10-01 06:29:00,
2013-09-30 23:34:00,61.6,56.4,29.83,WSW,253,0.0,0.0,83,0.00,,---,0.00,VWS V14.01,2013-10-01 06:34:00,
2013-09-30 23:39:00,61.5,56.6,29.83,WSW,253,0.0,0.0,84,0.00,,---,0.00,VWS V14.01,2013-10-01 06:39:00,
2013-09-30 23:45:00,61.3,56.4,29.83,WSW,253,0.0,0.0,84,0.00,,---,0.00,VWS V14.01,2013-10-01 06:45:00,
2013-09-30 23:50:00,61.0,56.1,29.83,WSW,254,0.0,0.0,84,0.00,,---,0.00,VWS V14.01,2013-10-01 06:50:00,
2013-09-30 23:55:00,60.9,56.4,29.83,WSW,254,0.0,0.0,85,0.00,,---,0.00,VWS V14.01,2013-10-01 06:55:00,